Regional Weather Roundup
Issued by NWS Nashville, TN

Home | Current Version | Previous Version | Text Only | Print | Product List | Glossary On
Versions: 1 2 3 4 5 6 7 8 9 10 11 12 13 14 15 16 17 18 19 20 21 22 23 24 25 26 27 28
000
ASUS44 KOHX 170110
RWROHX
MIDDLE TENNESSEE HOURLY WEATHER ROUNDUP
NATIONAL WEATHER SERVICE NASHVILLE TN
700 PM CST SAT DEC 16 2017

NOTE: "FAIR" INDICATES FEW OR NO CLOUDS BELOW 12,000 FEET WITH
NO SIGNIFICANT WEATHER AND/OR OBSTRUCTIONS TO VISIBILITY.

* THESE REPORTS ARE NOT UNDER NWS QUALITY CONTROL AND MAY NOT
  REPORT WEATHER SUCH AS PRECIPITATION AND FOG.


TNZ005>011-023>034-057-059-062>066-078-080-170200
...NORTHERN MIDDLE TENNESSEE...

CITY           SKY/WX    TMP DP  RH WIND       PRES   REMARKS
CLARKSVILLE    CLOUDY    44  27  51 S5        30.18R
CROSSVILLE     CLOUDY    36  26  67 S3        30.21R
GALLATIN       CLEAR     43  30  61 S3        30.23R
DICKSON          N/A     42  28  58 S8        30.18R
NASHVILLE      CLOUDY    43  30  60 S3        30.21R
PORTLAND       CLEAR     41  30  65 S8        30.19R
SMYRNA         PTCLDY    41  30  65 S5        30.24R
SPARTA         CLEAR     30  27  86 CALM      30.21R
SPRINGFIELD    CLEAR     45  28  53 S5        30.17R
WEST NASHVILLE CLEAR     46  28  49 S5        30.19R
$$
TNZ056-058-060-061-075>077-079-093>097-170200
...SOUTHERN MIDDLE TENNESSEE...

CITY           SKY/WX    TMP DP  RH WIND       PRES   REMARKS
COLUMBIA       CLEAR     45  30  57 CALM      30.19R
FAYETTEVILLE   CLEAR     41  30  65 S7        30.22R
MCMINNVILLE    CLEAR     36  28  75 CALM      30.22R
MURFREESBORO   PTCLDY    42  29  60 CALM      30.22R
PULASKI        CLEAR     36  30  80 CALM      30.21S
SHELBYVILLE    CLEAR     37  30  75 S3        30.22R
TULLAHOMA      CLEAR     41  28  60 CALM      30.21S
WINCHESTER     CLEAR     36  27  69 SE3       30.23S
$$


...KEY TO REMARKS...
VSB - VISIBILITY IN MILES
WCI - WIND CHILL INDEX
HX  - HEAT INDEX





USA.gov is the U.S. government's official web portal to all federal, state and local government web resources and services.